Regional Weather Roundup
Issued by NWS

Home | Current Version | Previous Version | Graphics & Text | Print | Product List | Glossary On
Versions: 1 2 3 4 5 6 7 8 9 10 11 12 13 14 15 16 17 18 19 20 21 22 23 24 25 26 27 28 29 30 31 32 33 34 35 36 37 38 39 40 41 42 43 44 45 46 47 48 49 50
000
ASUS43 KBIS 241310
RWRND

NORTH DAKOTA REGIONAL WEATHER ROUNDUP
NATIONAL WEATHER SERVICE BISMARCK ND
800 AM CDT THU APR 24 2014

NOTE: "FAIR" INDICATES FEW OR NO CLOUDS BELOW 12,000 FEET WITH NO
SIGNIFICANT WEATHER AND/OR OBSTRUCTIONS TO VISIBILITY.


NDZ001>003-009>011-017-241400-
NORTHWEST NORTH DAKOTA

CITY           SKY/WX    TMP DP  RH WIND       PRES   REMARKS
WILLISTON      SUNNY     38  27  64 SW10      29.70S
MINOT          SUNNY     40  30  67 SW15      29.66R
MINOT AFB      SUNNY     38  35  88 W15       29.65R
$$

NDZ018>021-031>035-040>046-241400-
SOUTHWEST NORTH DAKOTA

CITY           SKY/WX    TMP DP  RH WIND       PRES   REMARKS
BISMARCK       SUNNY     40  30  67 W7        29.75R
DICKINSON      MOSUNNY   41  25  53 W18       29.74R
GARRISON         N/A     35  30  82 SW3       29.70R
HETTINGER ARPT MOSUNNY   37  26  64 W7        29.79S
$$

NDZ004>008-012>016-024-026-027-054-241400-
NORTHEAST NORTH DAKOTA

CITY           SKY/WX    TMP DP  RH WIND       PRES   REMARKS
GRAND FORKS    CLOUDY    40  38  93 SE10      29.77S
GRND FRKS AFB  CLOUDY    39  39 100 SE8       29.77S
DEVILS LAKE    CLOUDY    37  34  87 SE7       29.71S VSB 1/4
$$

NDZ022-023-025-028>030-036>039-047>053-241400-
SOUTHEAST NORTH DAKOTA

CITY           SKY/WX    TMP DP  RH WIND       PRES   REMARKS
FARGO          LGT RAIN  41  39  93 SE6       29.76F FOG
JAMESTOWN      FOG       36  36 100 SE5       29.72S VSB 1/4
$$




USA.gov is the U.S. government's official web portal to all federal, state and local government web resources and services.